[[{"header":{"parameterUnit":"m.s-1","parameterCategory":2,"la1":30.2991,"la2":30.254,"lo1":-89.0895,"lo2":-89.0444,"dy":0.0017,"dx":0.0017,"nx":28,"ny":28,"refTime":"2025-01-31T09:00:00:Z","depth":"0","parameterNumber":2,"parameterNumberName":"U-component_of_CURRENTS"},"data":[0,0,0,0,0,0,0,0,0,0,0,0,0,0,0,0,0,0,0,0,0,0,0,0,0,0,0,0,0,0,0,0,0,0,0,0,0,0,0,0,0,0,0,0,0,0,0,0,0,0,0,0,0,0,0,0,0,0,0.1963,0.1962,0,0.1917,0.1916,0.1916,0.1879,0.1878,0.1878,0.1878,0.1754,0.1751,0.1748,0,0,0,0,0,0,0,0,0,0,0,0,0,0.2017,0.2016,0.1963,0.1962,0.1962,0.1917,0.1916,0.1916,0.1879,0.1878,0.1878,0.1878,0.1755,0.1752,0.1748,0,0,0,0,0,0,0,0,0,0,0,0,0,0.1983,0.2016,0.1963,0.1939,0.1937,0.1917,0.1916,0.1915,0.1879,0.1878,0.1878,0.1878,0.1757,0.1752,0.1748,0.1726,0,0,0.1733,0.1731,0,0,0,0,0,0,0,0,0.1985,0.1981,0.1943,0.1941,0.1938,0.1905,0.189,0.1849,0.1879,0.1899,0.1878,0.1878,0.1799,0.1791,0.1781,0.172,0.1715,0.1733,0.173,0.1728,0.1727,0,0,0,0,0,0,0,0.1987,0.1982,0.1943,0.1943,0.194,0.1931,0.1926,0.1882,0.1848,0.1897,0.1895,0.1893,0.1797,0.1786,0.1778,0.1713,0.1733,0.1729,0.1726,0.1724,0.1695,0.1697,0,0,0,0,0,0,0.1997,0.1985,0.1944,0.1942,0.1963,0.193,0.1924,0.1914,0.1851,0.1842,0.1893,0.1891,0.1794,0.1784,0.1774,0.1766,0.1728,0.1724,0.1721,0.1693,0.1696,0.1698,0,0,0,0,0,0,0.1998,0.1993,0.1946,0.1964,0.1958,0.193,0.1919,0.1914,0.1902,0.1849,0.1838,0.1887,0.1794,0.178,0.1758,0.176,0.1722,0.1718,0.1691,0.1694,0.1697,0.1736,0,0,0,0,0,0,0.1999,0.1994,0.1987,0.1964,0.1957,0.1931,0.1919,0.1913,0.1902,0.1899,0.184,0.1828,0.1792,0.1765,0.1753,0.1753,0.1714,0.1688,0.1692,0.1696,0.1732,0.174,0.1746,0,0,0,0,0,0.2001,0.1988,0.1987,0.1982,0.1949,0.1931,0.1926,0.1905,0.1902,0.1894,0.1876,0.183,0.1781,0.1763,0.1748,0.1746,0.1686,0.1691,0.1695,0.1729,0.1738,0.1746,0,0,0,0,0,0,0.1999,0.1983,0.198,0.1961,0.195,0.1926,0.1914,0.1908,0.1888,0.1884,0.1842,0.1829,0.1817,0.1786,0.1768,0.1758,0.1731,0.1733,0.1761,0.177,0.1777,0.1771,0.171,0,0,0,0,0,0.2,0.1989,0.1976,0.196,0.1955,0.1939,0.1929,0.1918,0.19,0.189,0.1858,0.1836,0.1825,0.1801,0.1783,0.1759,0.1773,0.1758,0.1765,0.1771,0.1763,0.1814,0.1824,0.1713,0.1713,0.1712,0,0,0.1994,0.1985,0.1977,0.196,0.1947,0.1933,0.1931,0.1916,0.1907,0.1879,0.1855,0.1854,0.1831,0.182,0.1811,0.1788,0.1818,0.1777,0.1782,0.1769,0.182,0.183,0.184,0.1716,0.1715,0.1715,0,0,0.1974,0.197,0.1953,0.1947,0.1935,0.1928,0.1927,0.1911,0.1906,0.1893,0.189,0.1901,0.1852,0.1855,0.1846,0.1883,0.1863,0.1876,0.1885,0.1936,0.1945,0.1953,0.201,0.2022,0.1868,0.1868,0.1868,0,0.1964,0.1947,0.1946,0.1931,0.1927,0.1927,0.1914,0.1908,0.1889,0.1897,0.1887,0.1893,0.1872,0.1885,0.1903,0.1894,0.1923,0.1847,0.1944,0.1952,0.1959,0.2015,0.2028,0.187,0.187,0.187,0.187,0,0.1935,0.1923,0.1914,0.1898,0.1894,0.1885,0.1885,0.1887,0.189,0.1891,0.1914,0.1915,0.1919,0.1926,0.1913,0.1961,0.1966,0.1955,0.1915,0.1972,0.2029,0.2042,0.1874,0.1873,0.1872,0.1872,0,0,0.19,0.1895,0.189,0.1892,0.1883,0.188,0.1876,0.1884,0.1899,0.1899,0.1923,0.1933,0.1953,0.1949,0.1957,0.1993,0.2082,0.199,0.1992,0.2035,0.2204,0.2134,0.2141,0.2086,0.2088,0.2089,0.2231,0,0.1875,0.1861,0.1859,0.1847,0.1845,0.1857,0.1859,0.1871,0.1887,0.191,0.194,0.196,0.1955,0.1973,0.2011,0.2059,0.2114,0.2044,0.2151,0.2155,0.2075,0.2153,0.2033,0.2142,0.2244,0.2246,0.2247,0,0.1844,0.1845,0.1836,0.1851,0.1851,0.1844,0.1876,0.1877,0.1912,0.1929,0.1961,0.1981,0.2034,0.2028,0.2139,0.2094,0.2154,0.2195,0.2201,0.2122,0.2107,0.2098,0.2162,0.2016,0.2267,0.2266,0.2264,0,0.1842,0.183,0.1834,0.1834,0.1844,0.1851,0.1858,0.1886,0.1909,0.1947,0.1973,0.2027,0.2064,0.2139,0.2202,0.2185,0.2327,0.2317,0.2321,0.2318,0.2228,0.2212,0.2146,0.242,0.2419,0.2419,0.2419,0,0.1829,0.183,0.1836,0.1839,0.1855,0.1856,0.1883,0.1899,0.1933,0.1962,0.1987,0.2025,0.2094,0.2167,0.223,0.2305,0.2357,0.2337,0.235,0.2241,0.2225,0.21,0.2055,0.2424,0.2423,0.2422,0.2421,0,0.1835,0.1832,0.1843,0.1853,0.1856,0.1873,0.1897,0.1924,0.1944,0.1986,0.2,0.2049,0.2124,0.2196,0.232,0.2337,0.2327,0.2441,0.2303,0.2295,0.2127,0.209,0.1998,0.1971,0.2472,0.2471,0.2471,0,0.1848,0.185,0.1862,0.1876,0.1882,0.1901,0.192,0.1934,0.1957,0.1998,0.2021,0.2087,0.2116,0.2249,0.2297,0.2394,0.2305,0.2334,0.2269,0.2102,0.2074,0.197,0.1949,0.2194,0.2191,0.2188,0.2186,0,0.1885,0.1883,0.1899,0.1911,0.1927,0.1945,0.1961,0.1976,0.1991,0.2011,0.203,0.2048,0.2126,0.213,0.2221,0.2265,0.2148,0.2285,0.2155,0.1879,0.1723,0.1707,0.2123,0.2165,0.2167,0.2168,0.217,0.217,0.1928,0.1939,0.1947,0.1956,0.1971,0.1974,0.1978,0.1984,0.1996,0.1985,0.2012,0.2007,0.1976,0.2064,0.2068,0.1948,0.2025,0.1884,0.1872,0.1796,0.1688,0.2046,0.206,0.2061,0.2063,0.2064,0.2065,0,0.1972,0.1973,0.199,0.199,0.1993,0.1989,0.1996,0.1981,0.1967,0.1955,0.1937,0.1867,0.1789,0.1742,0.1627,0.1536,0.1491,0.1471,0.1295,0.1319,0.1671,0.157,0.1423,0.1424,0.1424,0.1424,0.1424,0.1424,0.2004,0.2014,0.1999,0.2,0.1995,0.1977,0.197,0.1939,0.1923,0.183,0.1764,0.1713,0.1552,0.1283,0.1074,0.1077,0.0985,0.0921,0.0974,0.1179,0.1215,0.125,0.1139,0.0905,0.0904,0.0545,0.0542,0.054]},{"header":{"parameterUnit":"m.s-1","parameterCategory":2,"la1":30.2991,"la2":30.254,"lo1":-89.0895,"lo2":-89.0444,"dy":0.0017,"dx":0.0017,"nx":28,"ny":28,"refTime":"2025-01-31T09:00:00:Z","depth":"0","parameterNumber":3,"parameterNumberName":"V-component_of_CURRENTS"},"data":[0,0,0,0,0,0,0,0,0,0,0,0,0,0,0,0,0,0,0,0,0,0,0,0,0,0,0,0,0,0,0,0,0,0,0,0,0,0,0,0,0,0,0,0,0,0,0,0,0,0,0,0,0,0,0,0,0,0,0.0196,0.0197,0,0.0291,0.0292,0.0293,0.0338,0.0338,0.0338,0.0337,0.0413,0.0415,0.0418,0,0,0,0,0,0,0,0,0,0,0,0,0,0.0168,0.0168,0.0196,0.0197,0.0198,0.029,0.0292,0.0294,0.0338,0.0338,0.0338,0.0337,0.0412,0.0415,0.0418,0,0,0,0,0,0,0,0,0,0,0,0,0,0.0216,0.0168,0.0196,0.0229,0.0232,0.029,0.0292,0.0294,0.0339,0.0338,0.0337,0.0337,0.0411,0.0415,0.0418,0.0451,0,0,0.0429,0.0431,0,0,0,0,0,0,0,0,0.0213,0.0218,0.0223,0.0227,0.0231,0.0299,0.031,0.0345,0.0339,0.0302,0.0337,0.0337,0.0371,0.0378,0.0402,0.0455,0.0458,0.0429,0.0432,0.0433,0.0434,0,0,0,0,0,0,0,0.021,0.0215,0.0237,0.0224,0.0229,0.0277,0.0283,0.0318,0.0341,0.0305,0.0308,0.0313,0.0373,0.0399,0.0404,0.0459,0.0429,0.0432,0.0435,0.0436,0.0548,0.0549,0,0,0,0,0,0,0.0185,0.0211,0.0234,0.024,0.0216,0.0277,0.0284,0.0281,0.0341,0.0349,0.0313,0.0314,0.0393,0.04,0.0407,0.0473,0.0433,0.0436,0.0438,0.0547,0.0549,0.0549,0,0,0,0,0,0,0.0184,0.0186,0.023,0.0225,0.0234,0.0277,0.0274,0.0283,0.0307,0.0347,0.0355,0.0327,0.0393,0.0402,0.0451,0.0475,0.0438,0.0441,0.0546,0.0548,0.0549,0.059,0,0,0,0,0,0,0.0183,0.0185,0.0181,0.0223,0.0233,0.0272,0.0275,0.0285,0.0309,0.0311,0.0361,0.0368,0.0393,0.0446,0.0454,0.0479,0.0444,0.0545,0.0547,0.0549,0.0587,0.0592,0.0596,0,0,0,0,0,0.0182,0.018,0.018,0.0183,0.0223,0.0272,0.0283,0.0315,0.0309,0.0332,0.0365,0.0366,0.0461,0.045,0.046,0.0486,0.0545,0.0547,0.0548,0.0585,0.0591,0.0596,0,0,0,0,0,0,0.0168,0.0186,0.0186,0.019,0.0228,0.0278,0.0299,0.0313,0.0358,0.0358,0.0388,0.0399,0.045,0.0459,0.0445,0.052,0.0499,0.0503,0.0523,0.0529,0.0534,0.0535,0.0447,0,0,0,0,0,0.0159,0.0162,0.0193,0.0198,0.0214,0.0253,0.0276,0.0298,0.0338,0.0358,0.0394,0.0427,0.0468,0.0489,0.0527,0.0571,0.057,0.059,0.0594,0.0598,0.0605,0.0621,0.0628,0.0556,0.0556,0.0556,0,0,0.0153,0.0164,0.0165,0.0196,0.0225,0.0269,0.0267,0.0304,0.0347,0.0358,0.0427,0.045,0.0483,0.0541,0.0562,0.055,0.0618,0.0601,0.0604,0.0609,0.0624,0.0631,0.0637,0.0557,0.0557,0.0557,0,0,0.0162,0.0155,0.017,0.0205,0.0246,0.0277,0.0283,0.0338,0.0367,0.0429,0.0447,0.0487,0.0547,0.0585,0.0607,0.0656,0.0643,0.0655,0.0683,0.0698,0.0704,0.071,0.0716,0.0721,0.0655,0.0655,0.0656,0,0.0155,0.0179,0.0187,0.0224,0.0258,0.0278,0.0324,0.0363,0.043,0.046,0.0453,0.0549,0.0575,0.0644,0.0661,0.067,0.0665,0.0662,0.0705,0.071,0.0715,0.0719,0.0725,0.0658,0.0657,0.0657,0.0657,0,0.019,0.0214,0.0231,0.0281,0.0319,0.036,0.0409,0.0452,0.0477,0.0515,0.0584,0.0621,0.0674,0.0685,0.0692,0.0741,0.0722,0.071,0.0691,0.0724,0.0727,0.0732,0.0661,0.066,0.0659,0.0659,0,0,0.0168,0.024,0.0248,0.0288,0.0353,0.0393,0.0458,0.053,0.0573,0.0622,0.0682,0.0743,0.0743,0.0767,0.0775,0.0787,0.0817,0.0759,0.0759,0.0765,0.0839,0.0818,0.0821,0.0805,0.0806,0.0807,0.0828,0,0.02,0.0274,0.0305,0.0389,0.0437,0.048,0.0543,0.0605,0.065,0.0712,0.074,0.0796,0.0779,0.0799,0.0812,0.0822,0.0832,0.0812,0.0806,0.0806,0.0783,0.0827,0.0846,0.0866,0.0832,0.0833,0.0834,0,0.0235,0.0282,0.0362,0.0453,0.0477,0.0527,0.0623,0.0682,0.0758,0.079,0.0835,0.0852,0.0897,0.0862,0.0893,0.0876,0.0862,0.0856,0.0856,0.0826,0.0794,0.0827,0.0876,0.08,0.0841,0.0841,0.084,0,0.0235,0.0327,0.0391,0.0424,0.0525,0.0568,0.062,0.0703,0.0756,0.0831,0.0865,0.0914,0.0942,0.0936,0.0932,0.0909,0.095,0.0918,0.0886,0.0883,0.0896,0.0892,0.0873,0.0931,0.0931,0.0931,0.0931,0,0.027,0.0324,0.0393,0.0434,0.0513,0.0575,0.0658,0.0716,0.0792,0.0852,0.0893,0.0944,0.0958,0.0983,0.0958,0.0949,0.0973,0.0904,0.0895,0.0909,0.0907,0.0837,0.082,0.0932,0.0932,0.0932,0.0931,0,0.0282,0.0324,0.0401,0.0491,0.0518,0.0575,0.0671,0.0726,0.0794,0.087,0.0891,0.0975,0.102,0.1028,0.1038,0.0988,0.0957,0.0962,0.0975,0.0966,0.084,0.0826,0.0847,0.0829,0.0923,0.0923,0.0923,0,0.0307,0.0342,0.0426,0.0462,0.0505,0.0584,0.0635,0.0718,0.0767,0.0887,0.0916,0.0999,0.1066,0.1087,0.1053,0.1027,0.0977,0.0977,0.0935,0.0848,0.0826,0.0825,0.0807,0.0969,0.0969,0.0969,0.097,0,0.0352,0.0365,0.0421,0.0475,0.0528,0.0597,0.0665,0.0702,0.0796,0.0859,0.0948,0.1018,0.1088,0.1119,0.1097,0.1048,0.0949,0.0974,0.0895,0.0875,0.0866,0.0839,0.0927,0.0971,0.0971,0.097,0.097,0.097,0.0375,0.0404,0.0445,0.0501,0.0551,0.0596,0.0639,0.07,0.0772,0.0871,0.0946,0.1084,0.117,0.1172,0.1066,0.0929,0.0958,0.0868,0.0862,0.0871,0.0843,0.0923,0.0943,0.0942,0.0942,0.0942,0.0942,0,0.04,0.0418,0.0467,0.0522,0.0557,0.0584,0.0651,0.0689,0.0749,0.0886,0.0972,0.1201,0.1172,0.1143,0.1008,0.0853,0.0803,0.0773,0.0776,0.0765,0.0845,0.0832,0.0816,0.0816,0.0816,0.0816,0.0816,0.0816,0.0414,0.0442,0.0455,0.0505,0.0537,0.0577,0.0604,0.0667,0.0771,0.0972,0.1161,0.1315,0.1455,0.1116,0.0851,0.0759,0.067,0.0676,0.062,0.0657,0.0664,0.0672,0.0652,0.0598,0.0598,0.0552,0.0552,0.0551]}],[{"header":{"parameterUnit":"m.s-1","parameterCategory":2,"la1":30.2991,"la2":30.254,"lo1":-89.0895,"lo2":-89.0444,"dy":0.0017,"dx":0.0017,"nx":28,"ny":28,"refTime":"2025-01-31T09:00:00:Z","depth":"2","parameterNumber":2,"parameterNumberName":"U-component_of_CURRENTS"},"data":[0,0,0,0,0,0,0,0,0,0,0,0,0,0,0,0,0,0,0,0,0,0,0,0,0,0,0,0,0,0,0,0,0,0,0,0,0,0,0,0,0,0,0,0,0,0,0,0,0,0,0,0,0,0,0,0,0,0,0.0613,0.0613,0,0.0602,0.0602,0.0602,0.0576,0.0575,0.0575,0.0574,0.0578,0.0579,0.0579,0,0,0,0,0,0,0,0,0,0,0,0,0,0.0619,0.0619,0.0613,0.0613,0.0613,0.0602,0.0602,0.0602,0.0576,0.0575,0.0575,0.0574,0.0578,0.0579,0.0579,0,0,0,0,0,0,0,0,0,0,0,0,0,0.0612,0.0619,0.0613,0.06,0.0599,0.0602,0.0602,0.0602,0.0576,0.0575,0.0574,0.0574,0.0578,0.0579,0.0579,0.0596,0,0,0.0582,0.0582,0,0,0,0,0,0,0,0,0.0612,0.0611,0.0602,0.0601,0.06,0.0591,0.0606,0.0601,0.0576,0.0583,0.0574,0.0574,0.0585,0.0586,0.0582,0.0596,0.0596,0.0582,0.0582,0.0582,0.0583,0,0,0,0,0,0,0,0.0613,0.0612,0.0607,0.0602,0.0601,0.0598,0.0596,0.0605,0.0587,0.0582,0.0581,0.0582,0.0585,0.0582,0.0582,0.0596,0.0582,0.0582,0.0583,0.0583,0.0629,0.063,0,0,0,0,0,0,0.0617,0.0612,0.0608,0.0607,0.0606,0.0598,0.0596,0.0593,0.0586,0.0585,0.0583,0.0581,0.0581,0.0581,0.0582,0.0614,0.0582,0.0583,0.0583,0.0629,0.063,0.0631,0,0,0,0,0,0,0.0618,0.0617,0.0608,0.0611,0.061,0.0599,0.0596,0.0593,0.0591,0.0587,0.0585,0.0584,0.058,0.0581,0.0595,0.0613,0.0583,0.0584,0.0628,0.0629,0.063,0.0669,0,0,0,0,0,0,0.0618,0.0617,0.0619,0.0611,0.061,0.0611,0.0597,0.0594,0.0594,0.0592,0.0588,0.0587,0.058,0.0594,0.0595,0.0614,0.0585,0.0627,0.0628,0.063,0.0666,0.0671,0.0675,0,0,0,0,0,0.0618,0.0619,0.0619,0.0619,0.0612,0.0611,0.061,0.0599,0.0595,0.0595,0.0596,0.0587,0.0604,0.0595,0.0597,0.0616,0.0626,0.0628,0.063,0.0664,0.067,0.0675,0,0,0,0,0,0,0.0622,0.0617,0.0616,0.0616,0.0616,0.0608,0.0608,0.0605,0.0605,0.0605,0.0599,0.0599,0.0617,0.0612,0.0602,0.0633,0.0614,0.0616,0.064,0.0645,0.0649,0.0653,0.0585,0,0,0,0,0,0.0626,0.0624,0.0623,0.0623,0.0625,0.062,0.062,0.0615,0.0614,0.0613,0.0612,0.0616,0.0626,0.0632,0.0636,0.0656,0.067,0.0669,0.0673,0.0677,0.0682,0.0725,0.0734,0.0636,0.0636,0.0636,0,0,0.0628,0.0626,0.0624,0.0625,0.0623,0.0627,0.0617,0.062,0.0626,0.0616,0.0626,0.0632,0.0635,0.0654,0.0662,0.0652,0.0714,0.0679,0.0682,0.0685,0.0728,0.0737,0.0746,0.0638,0.0637,0.0637,0,0,0.0627,0.063,0.0627,0.063,0.0634,0.0635,0.0639,0.0638,0.064,0.0654,0.0651,0.067,0.0678,0.0688,0.0694,0.0727,0.0734,0.0728,0.0755,0.0797,0.0806,0.0813,0.0851,0.0862,0.0731,0.0731,0.0731,0,0.063,0.0625,0.0627,0.0629,0.0635,0.064,0.0645,0.0652,0.0657,0.0671,0.0661,0.0696,0.0696,0.0732,0.074,0.0738,0.0762,0.0735,0.0804,0.0812,0.0819,0.0856,0.0867,0.0733,0.0733,0.0732,0.0732,0,0.0624,0.0627,0.0628,0.0633,0.0643,0.0648,0.0662,0.0676,0.0685,0.0697,0.0733,0.0741,0.0764,0.0768,0.0763,0.0816,0.0817,0.0805,0.0792,0.0831,0.0867,0.0879,0.0736,0.0735,0.0734,0.0734,0,0,0.0611,0.0621,0.0621,0.0626,0.0646,0.065,0.0678,0.0703,0.0727,0.0745,0.0782,0.0804,0.0818,0.0826,0.0831,0.0864,0.0933,0.0857,0.0859,0.0898,0.1032,0.0936,0.0938,0.0938,0.094,0.0941,0.104,0,0.0605,0.0604,0.0619,0.063,0.0631,0.066,0.0687,0.0717,0.0745,0.0783,0.0816,0.0849,0.0839,0.0857,0.0892,0.0922,0.0964,0.0908,0.0986,0.0988,0.09,0.0948,0.0804,0.0871,0.1051,0.1052,0.1054,0,0.0589,0.0592,0.0598,0.0626,0.0633,0.065,0.0699,0.0724,0.0788,0.0815,0.0865,0.0891,0.0951,0.0931,0.102,0.0987,0.1016,0.1036,0.104,0.0943,0.0912,0.0859,0.0884,0.1072,0.1071,0.1069,0.1068,0,0.0559,0.0578,0.0582,0.059,0.0626,0.0648,0.0675,0.0734,0.0761,0.0842,0.0871,0.095,0.0987,0.1043,0.1085,0.1064,0.1178,0.1153,0.1098,0.1092,0.0979,0.0959,0.1223,0.1223,0.1222,0.1222,0.1222,0,0.0537,0.054,0.0569,0.0569,0.059,0.063,0.0667,0.0709,0.0775,0.0813,0.0885,0.0927,0.1017,0.1085,0.112,0.1144,0.1213,0.1114,0.1113,0.0987,0.0967,0.1141,0.1131,0.1226,0.1225,0.1224,0.1224,0,0.0495,0.0514,0.0518,0.0556,0.0571,0.0586,0.0644,0.0673,0.0742,0.0796,0.0825,0.0929,0.1017,0.1098,0.1197,0.1171,0.1215,0.1208,0.1049,0.1025,0.1095,0.1086,0.1157,0.1154,0.1152,0.115,0.1149,0,0.0468,0.0465,0.0495,0.0503,0.0521,0.0552,0.0578,0.0648,0.0679,0.0785,0.0808,0.0918,0.0959,0.1068,0.1051,0.1094,0.12,0.1008,0.0922,0.1098,0.1091,0.1084,0.1077,0.0806,0.0802,0.0798,0.0796,0,0.0416,0.0432,0.0438,0.0456,0.0479,0.0502,0.0544,0.056,0.0647,0.0693,0.0763,0.0804,0.0857,0.0833,0.0878,0.0879,0.0982,0.0934,0.1193,0.0821,0.0768,0.076,0.0766,0.0765,0.0768,0.077,0.0772,0.0773,0.0378,0.0375,0.0391,0.0409,0.0433,0.0456,0.0468,0.0512,0.0551,0.0604,0.0661,0.067,0.0684,0.0633,0.0661,0.0679,0.0726,0.0729,0.074,0.0755,0.0672,0.0616,0.057,0.0572,0.0574,0.0575,0.0577,0,0.0337,0.0344,0.0347,0.037,0.0383,0.0418,0.045,0.0452,0.0482,0.0493,0.0517,0.0408,0.04,0.0475,0.0398,0.0388,0.0383,0.0439,0.0444,0.047,0.0495,0.0401,0.0228,0.0228,0.0227,0.0227,0,0,0.0314,0.0306,0.0312,0.0319,0.0345,0.0363,0.0379,0.0378,0.0368,0.03,0.027,0.0291,0.0338,0.0245,0.0252,0.0246,0.0357,0.0224,0.0483,0.0506,0.0531,0.0621,0.05,0,0,0,0,0]},{"header":{"parameterUnit":"m.s-1","parameterCategory":2,"la1":30.2991,"la2":30.254,"lo1":-89.0895,"lo2":-89.0444,"dy":0.0017,"dx":0.0017,"nx":28,"ny":28,"refTime":"2025-01-31T09:00:00:Z","depth":"2","parameterNumber":3,"parameterNumberName":"V-component_of_CURRENTS"},"data":[0,0,0,0,0,0,0,0,0,0,0,0,0,0,0,0,0,0,0,0,0,0,0,0,0,0,0,0,0,0,0,0,0,0,0,0,0,0,0,0,0,0,0,0,0,0,0,0,0,0,0,0,0,0,0,0,0,0,-0.0079,-0.0078,0,-0.0058,-0.0057,-0.0057,-0.0046,-0.0046,-0.0046,-0.0046,-0.0045,-0.0045,-0.0045,0,0,0,0,0,0,0,0,0,0,0,0,0,-0.0092,-0.0092,-0.0079,-0.0078,-0.0078,-0.0058,-0.0057,-0.0057,-0.0046,-0.0046,-0.0046,-0.0047,-0.0045,-0.0045,-0.0045,0,0,0,0,0,0,0,0,0,0,0,0,0,-0.0079,-0.0092,-0.0079,-0.0072,-0.0071,-0.0058,-0.0057,-0.0057,-0.0046,-0.0046,-0.0046,-0.0047,-0.0045,-0.0045,-0.0045,-0.004,0,0,-0.0044,-0.0044,0,0,0,0,0,0,0,0,-0.008,-0.0078,-0.0073,-0.0072,-0.0071,-0.0056,-0.0062,-0.0053,-0.0046,-0.0054,-0.0046,-0.0047,-0.0052,-0.0051,-0.0044,-0.004,-0.004,-0.0044,-0.0044,-0.0044,-0.0044,0,0,0,0,0,0,0,-0.0081,-0.0079,-0.0069,-0.0073,-0.0072,-0.0064,-0.0062,-0.006,-0.0051,-0.0053,-0.0053,-0.0053,-0.0051,-0.0044,-0.0044,-0.004,-0.0044,-0.0044,-0.0044,-0.0044,-0.0042,-0.0042,0,0,0,0,0,0,-0.0087,-0.008,-0.0069,-0.0068,-0.0078,-0.0064,-0.0062,-0.0059,-0.0051,-0.005,-0.0053,-0.0052,-0.0045,-0.0044,-0.0044,-0.0034,-0.0044,-0.0044,-0.0044,-0.0042,-0.0042,-0.0042,0,0,0,0,0,0,-0.0087,-0.0086,-0.007,-0.0075,-0.0073,-0.0064,-0.0061,-0.0059,-0.0054,-0.005,-0.005,-0.0051,-0.0045,-0.0044,-0.004,-0.0034,-0.0044,-0.0044,-0.0042,-0.0042,-0.0042,-0.0016,0,0,0,0,0,0,-0.0088,-0.0086,-0.0086,-0.0075,-0.0073,-0.0058,-0.0061,-0.0059,-0.0055,-0.0054,-0.0048,-0.0048,-0.0045,-0.004,-0.004,-0.0034,-0.0043,-0.0042,-0.0042,-0.0042,-0.0016,-0.0015,-0.0013,0,0,0,0,0,-0.0088,-0.0081,-0.0086,-0.0084,-0.0073,-0.0057,-0.0055,-0.0048,-0.0055,-0.0046,-0.0046,-0.0048,-0.0041,-0.004,-0.0039,-0.0033,-0.0041,-0.0042,-0.0042,-0.0017,-0.0015,-0.0013,0,0,0,0,0,0,-0.008,-0.0079,-0.0084,-0.0076,-0.0068,-0.0056,-0.0049,-0.005,-0.0042,-0.0045,-0.0045,-0.0044,-0.0039,-0.0043,-0.0042,-0.0035,-0.0044,-0.0044,-0.0025,-0.0023,-0.0022,-0.0012,-0.0043,0,0,0,0,0,-0.0081,-0.0078,-0.0075,-0.0067,-0.0066,-0.0061,-0.0055,-0.0052,-0.0045,-0.0042,-0.004,-0.0041,-0.0039,-0.0037,-0.0035,-0.0029,-0.0037,-0.0027,-0.0026,-0.0024,-0.0017,-0.0033,-0.0032,-0.0042,-0.0042,-0.0042,0,0,-0.0075,-0.0076,-0.0073,-0.0066,-0.0062,-0.0048,-0.0057,-0.0047,-0.0035,-0.0044,-0.0029,-0.0035,-0.0037,-0.0028,-0.0027,-0.003,-0.0026,-0.0025,-0.0023,-0.0016,-0.0033,-0.0032,-0.0031,-0.0043,-0.0043,-0.0043,0,0,-0.0057,-0.0064,-0.0055,-0.0048,-0.0044,-0.004,-0.0039,-0.003,-0.0027,-0.0016,-0.0022,-0.0024,-0.0019,-0.0015,-0.0015,-0.0006,-0.0019,-0.0012,0.0008,-0.0008,-0.0007,-0.0006,-0.0012,-0.0012,-0.001,-0.001,-0.001,0,-0.0052,-0.004,-0.0047,-0.0035,-0.0026,-0.0036,-0.0018,-0.0013,-0.0004,0.0001,-0.0009,-0.0005,-0.001,0.0003,0.0005,-0.0001,-0.0012,0.0004,-0.0005,-0.0004,-0.0004,-0.0011,-0.0011,-0.0009,-0.0009,-0.0009,-0.0009,0,-0.0024,-0.0016,-0.0008,0.0001,0.0012,0.0024,0.0027,0.0032,0.0027,0.0032,0.0038,0.0029,0.0032,0.0026,0.002,0.0021,0.0013,-0.0002,-0.0007,-0.0001,-0.0009,-0.001,-0.0007,-0.0007,-0.0008,-0.0008,0,0,-0.0014,0.0007,0.0008,0.0021,0.003,0.0044,0.0058,0.0073,0.0087,0.008,0.0099,0.0089,0.0076,0.0075,0.0061,0.0047,0.0037,0.0025,0.0023,0.0024,0.0008,0.0035,0.0036,0.0018,0.0018,0.0018,0.0003,0,0.0007,0.0038,0.0045,0.0078,0.0093,0.0093,0.0112,0.0123,0.0125,0.014,0.012,0.0132,0.0096,0.0099,0.0077,0.0056,0.0036,0.0043,-0.0002,-0.0003,0.0024,0.0036,0.0026,0.0015,0.0002,0.0002,0.0002,0,0.0025,0.0046,0.008,0.0114,0.0122,0.0141,0.0168,0.0186,0.0198,0.02,0.0197,0.0185,0.0176,0.0137,0.0093,0.0099,0.0052,0.0026,0.0024,0.0041,0.0023,0.0006,0.0014,0.0,0.0,0.0,0.0,0,0.0027,0.0068,0.0096,0.0107,0.0144,0.0161,0.0182,0.0202,0.0227,0.024,0.0261,0.0236,0.0241,0.0177,0.0126,0.0104,0.0079,0.004,0.0018,0.0019,-0.0,0.0,-0.0007,-0.0007,-0.0007,-0.0007,-0.0007,0,0.0037,0.0057,0.01,0.0113,0.0158,0.0177,0.0222,0.0237,0.027,0.0317,0.0293,0.033,0.0249,0.0229,0.0152,0.0103,0.0096,0.0031,0.002,0.0009,0.0011,-0.0013,-0.0014,-0.0007,-0.0007,-0.0007,-0.0007,0,0.0023,0.0047,0.0086,0.0136,0.0156,0.0187,0.0252,0.0292,0.0315,0.0376,0.0386,0.0402,0.0388,0.0311,0.0232,0.0158,0.0094,0.0069,0.0074,0.0064,0.0031,0.0032,0.0035,0.0036,0.0037,0.0037,0.0038,0,0.0014,0.0032,0.01,0.0139,0.0162,0.0215,0.0262,0.0304,0.0355,0.0433,0.0474,0.0486,0.051,0.0422,0.0295,0.0176,0.0143,0.0087,0.004,0.0048,0.0037,0.0036,0.0036,0.0018,0.0018,0.0019,0.0019,0,0.0009,0.0034,0.0077,0.0155,0.0212,0.028,0.035,0.0396,0.0463,0.0529,0.0628,0.0655,0.0578,0.0473,0.0317,0.0232,0.0106,0.009,0.0097,0.002,0.0034,0.0022,0.0022,0.0021,0.0021,0.0021,0.0021,0.002,0.001,0.005,0.0119,0.0191,0.0259,0.035,0.0415,0.0502,0.0603,0.0722,0.0731,0.0755,0.0586,0.039,0.0284,0.0164,0.0143,0.0061,0.0059,0.0057,0.0069,0.0084,0.0083,0.0083,0.0083,0.0083,0.0084,0,0.0031,0.0088,0.0159,0.0261,0.0342,0.0365,0.0484,0.058,0.0714,0.0786,0.0867,0.069,0.0561,0.0402,0.0219,0.0105,0.0083,0.0081,0.0052,0.005,0.0048,0.0058,0.007,0.007,0.007,0.007,0,0,0.0053,0.0132,0.0181,0.0319,0.0383,0.0511,0.058,0.0724,0.0802,0.0896,0.0867,0.0804,0.0558,0.0404,0.0256,0.018,0.0157,0.0173,0.0189,0.0171,0.0172,0.0032,0.0046,0,0,0,0,0]}],[{"header":{"parameterUnit":"m.s-1","parameterCategory":2,"la1":30.2991,"la2":30.254,"lo1":-89.0895,"lo2":-89.0444,"dy":0.0017,"dx":0.0017,"nx":28,"ny":28,"refTime":"2025-01-31T09:00:00:Z","depth":"4","parameterNumber":2,"parameterNumberName":"U-component_of_CURRENTS"},"data":[0,0,0,0,0,0,0,0,0,0,0,0,0,0,0,0,0,0,0,0,0,0,0,0,0,0,0,0,0,0,0,0,0,0,0,0,0,0,0,0,0,0,0,0,0,0,0,0,0,0,0,0,0,0,0,0,0,0,-0.015,-0.0149,0,-0.0104,-0.0103,-0.0103,-0.0053,-0.0052,-0.0051,-0.0051,-0.0009,-0.0009,-0.0009,0,0,0,0,0,0,0,0,0,0,0,0,0,-0.0202,-0.0201,-0.015,-0.0149,-0.0148,-0.0104,-0.0103,-0.0103,-0.0053,-0.0052,-0.0051,-0.005,-0.0009,-0.0009,-0.0009,0,0,0,0,0,0,0,0,0,0,0,0,0,-0.0171,-0.0201,-0.015,-0.0117,-0.0113,-0.0104,-0.0103,-0.0103,-0.0053,-0.0052,-0.0051,-0.005,-0.0009,-0.0009,-0.0009,-0.0032,0,0,-0.0007,-0.0007,0,0,0,0,0,0,0,0,-0.0173,-0.017,-0.0123,-0.0119,-0.0115,-0.0081,-0.0106,-0.0079,-0.0054,-0.0078,-0.0051,-0.0049,-0.0034,-0.0031,-0.0028,-0.003,-0.0028,-0.0007,-0.0007,-0.0007,-0.0007,0,0,0,0,0,0,0,-0.0175,-0.0172,-0.0133,-0.0122,-0.0117,-0.0107,-0.0101,-0.0101,-0.0065,-0.0076,-0.0072,-0.0064,-0.0032,-0.0028,-0.0026,-0.0028,-0.0007,-0.0007,-0.0007,-0.0006,0.0011,0.0011,0,0,0,0,0,0,-0.0179,-0.0174,-0.0135,-0.0132,-0.014,-0.0107,-0.01,-0.0095,-0.0065,-0.0059,-0.0065,-0.0062,-0.003,-0.0027,-0.0025,0.001,-0.0007,-0.0006,-0.0006,0.0011,0.0011,0.0011,0,0,0,0,0,0,-0.018,-0.0176,-0.0137,-0.015,-0.0144,-0.0107,-0.0101,-0.0095,-0.0062,-0.0057,-0.005,-0.0036,-0.0029,-0.0025,-0.0003,0.001,-0.0006,-0.0006,0.0011,0.0011,0.0011,0.004,0,0,0,0,0,0,-0.0182,-0.0177,-0.0169,-0.015,-0.0143,-0.0118,-0.0102,-0.0095,-0.006,-0.0055,-0.003,-0.0026,-0.0027,-0.0004,-0.0003,0.001,-0.0005,0.001,0.0011,0.0011,0.0039,0.0042,0.0044,0,0,0,0,0,-0.0184,-0.0182,-0.0169,-0.0163,-0.0135,-0.0118,-0.0113,-0.0084,-0.006,-0.0048,-0.0028,-0.0025,-0.0001,-0.0003,-0.0002,0.0011,0.001,0.0011,0.0011,0.0038,0.0041,0.0044,0,0,0,0,0,0,-0.0202,-0.0176,-0.0161,-0.0151,-0.0128,-0.0108,-0.0095,-0.007,-0.0045,-0.0032,-0.0022,-0.0017,0.0005,0.0002,-0.0001,0.0016,0.0004,0.0005,0.0024,0.0027,0.0029,0.0032,-0.0005,0,0,0,0,0,-0.0203,-0.0193,-0.0166,-0.0157,-0.0144,-0.0114,-0.0099,-0.0075,-0.0053,-0.0038,-0.0015,-0.0001,0.0001,0.0012,0.0014,0.0025,0.0005,0.0033,0.0035,0.0037,0.004,0.0016,0.0016,0.0013,0.0013,0.0013,0,0,-0.021,-0.0193,-0.0188,-0.016,-0.014,-0.0123,-0.0101,-0.0072,-0.0051,-0.004,0.0,0.001,0.0005,0.0018,0.0027,0.0023,0.0027,0.0038,0.004,0.0041,0.0016,0.0017,0.0017,0.0013,0.0013,0.0013,0,0,-0.0222,-0.02,-0.0194,-0.0172,-0.0135,-0.0117,-0.0101,-0.006,-0.0034,-0.0001,0.0008,0.0025,0.0046,0.004,0.0037,0.0051,0.0038,0.006,0.0079,0.0056,0.0056,0.0056,0.0027,0.0024,0.0064,0.0064,0.0064,0,-0.0228,-0.0215,-0.0189,-0.0174,-0.0154,-0.0111,-0.0094,-0.0069,-0.0022,-0.0006,0.0018,0.0045,0.0049,0.0045,0.006,0.0056,0.0044,0.007,0.0059,0.0058,0.0057,0.0028,0.0025,0.0065,0.0065,0.0065,0.0065,0,-0.0235,-0.0216,-0.0209,-0.0176,-0.0153,-0.0131,-0.0092,-0.0057,-0.0013,0.0011,0.0042,0.0053,0.0071,0.0073,0.0078,0.0077,0.007,0.0063,0.0052,0.0059,0.0028,0.0024,0.0067,0.0067,0.0066,0.0066,0,0,-0.027,-0.0223,-0.022,-0.02,-0.0148,-0.0132,-0.0096,-0.006,-0.0035,0.0016,0.0038,0.006,0.0087,0.0085,0.0092,0.0081,0.0071,0.0085,0.0083,0.0058,0.0023,0.0024,0.0019,0.007,0.0069,0.0069,0.0002,0,-0.0279,-0.0256,-0.0228,-0.02,-0.018,-0.0132,-0.0107,-0.0066,-0.0024,0.0009,0.0029,0.0057,0.0083,0.0104,0.0099,0.0078,0.0063,0.009,0.0019,0.0017,0.0018,0.0015,0.0067,-0.0001,-0.0003,-0.0003,-0.0004,0,-0.0293,-0.0273,-0.025,-0.0203,-0.0191,-0.0164,-0.0113,-0.0082,-0.0036,-0.0002,0.0035,0.0062,0.0075,0.0091,0.0063,0.0086,0.0065,0.0042,0.0038,0.0027,0.001,-0.001,-0.0012,-0.0011,-0.0011,-0.001,-0.001,0,-0.0331,-0.0288,-0.027,-0.0253,-0.0196,-0.0171,-0.0132,-0.0081,-0.0054,0.0001,0.0022,0.0047,0.0063,0.0047,0.0031,0.0055,-0.0025,-0.0009,-0.0039,-0.004,-0.0034,-0.0033,-0.0045,-0.0045,-0.0045,-0.0045,-0.0045,0,-0.0347,-0.0336,-0.028,-0.0269,-0.0238,-0.0186,-0.0148,-0.0106,-0.0057,-0.0042,0.0024,0.002,0.0057,0.0028,0.0012,-0.0029,-0.0042,-0.0038,-0.0055,-0.0021,-0.0018,-0.0038,-0.0036,-0.0048,-0.0047,-0.0046,-0.0046,0,-0.0386,-0.0355,-0.0335,-0.0276,-0.0252,-0.0225,-0.015,-0.0123,-0.0072,-0.0053,-0.0032,0.0003,-0.0019,-0.002,-0.0065,-0.0058,-0.0105,-0.0127,-0.0104,-0.012,-0.0096,-0.0092,-0.0141,-0.0142,-0.0142,-0.0143,-0.0143,0,-0.0399,-0.0393,-0.0348,-0.0322,-0.0287,-0.0235,-0.0196,-0.0131,-0.0108,-0.0088,-0.0093,-0.0088,-0.0072,-0.0126,-0.0136,-0.0164,-0.0164,-0.0174,-0.0103,-0.0093,-0.0105,-0.0101,-0.0096,-0.0143,-0.0144,-0.0144,-0.0144,0,-0.0424,-0.0416,-0.0398,-0.0347,-0.0302,-0.0263,-0.0207,-0.0193,-0.0141,-0.0117,-0.0116,-0.0105,-0.0139,-0.0138,-0.0156,-0.0188,-0.0149,-0.0178,-0.0175,-0.0108,-0.0096,-0.0107,-0.0102,-0.0145,-0.0145,-0.0145,-0.0145,0,-0.0443,-0.044,-0.0411,-0.0358,-0.0319,-0.0279,-0.0251,-0.0207,-0.0176,-0.0137,-0.0169,-0.0168,-0.0161,-0.016,-0.0208,-0.0198,-0.0173,-0.0141,-0.014,-0.0139,-0.0104,-0.0086,-0.015,0,0,0,0,0,-0.0446,-0.0435,-0.0407,-0.0352,-0.032,-0.0288,-0.0251,-0.0225,-0.02,-0.0186,-0.0155,-0.0181,-0.0178,-0.0198,-0.0184,-0.0229,-0.0195,-0.0214,-0.0163,-0.0153,-0.0151,-0.0108,0,0,0,0,0,0,-0.0434,-0.0437,-0.0414,-0.0355,-0.0314,-0.0275,-0.0251,-0.0235,-0.0215,-0.0192,-0.0192,-0.0167,-0.0178,-0.0181,-0.0181,-0.0185,-0.0146,-0.0213,-0.0212,-0.0154,-0.0152,-0.0151,-0.0106,0,0,0,0,0]},{"header":{"parameterUnit":"m.s-1","parameterCategory":2,"la1":30.2991,"la2":30.254,"lo1":-89.0895,"lo2":-89.0444,"dy":0.0017,"dx":0.0017,"nx":28,"ny":28,"refTime":"2025-01-31T09:00:00:Z","depth":"4","parameterNumber":3,"parameterNumberName":"V-component_of_CURRENTS"},"data":[0,0,0,0,0,0,0,0,0,0,0,0,0,0,0,0,0,0,0,0,0,0,0,0,0,0,0,0,0,0,0,0,0,0,0,0,0,0,0,0,0,0,0,0,0,0,0,0,0,0,0,0,0,0,0,0,0,0,0.0134,0.0134,0,0.0124,0.0124,0.0124,0.0108,0.0107,0.0107,0.0107,0.0078,0.0077,0.0077,0,0,0,0,0,0,0,0,0,0,0,0,0,0.0138,0.0138,0.0134,0.0134,0.0134,0.0124,0.0124,0.0124,0.0108,0.0107,0.0107,0.0107,0.0078,0.0077,0.0077,0,0,0,0,0,0,0,0,0,0,0,0,0,0.0132,0.0138,0.0134,0.0125,0.0125,0.0124,0.0124,0.0124,0.0108,0.0107,0.0107,0.0107,0.0078,0.0077,0.0076,0.0078,0,0,0.0074,0.0074,0,0,0,0,0,0,0,0,0.0133,0.0132,0.0127,0.0126,0.0125,0.0117,0.0115,0.0108,0.0108,0.0113,0.0107,0.0107,0.009,0.0088,0.0086,0.0077,0.0076,0.0074,0.0073,0.0073,0.0073,0,0,0,0,0,0,0,0.0133,0.0133,0.013,0.0127,0.0126,0.0121,0.012,0.0113,0.0103,0.0113,0.0112,0.0112,0.0089,0.0087,0.0085,0.0075,0.0074,0.0073,0.0073,0.0072,0.001,0.0009,0,0,0,0,0,0,0.0136,0.0133,0.013,0.0129,0.0129,0.0122,0.012,0.012,0.0103,0.0101,0.0112,0.0111,0.0089,0.0086,0.0084,0.0048,0.0073,0.0072,0.0072,0.0011,0.0009,0.0008,0,0,0,0,0,0,0.0136,0.0136,0.013,0.0131,0.0131,0.0122,0.0122,0.012,0.0102,0.0103,0.01,0.0094,0.0088,0.0086,0.006,0.0048,0.0072,0.0071,0.0012,0.001,0.0009,-0.0,0,0,0,0,0,0,0.0136,0.0136,0.0131,0.0132,0.0131,0.0116,0.0122,0.012,0.0104,0.0102,0.0087,0.0085,0.0088,0.0061,0.0059,0.0048,0.007,0.0014,0.0011,0.0009,0.0002,-0.0002,-0.0005,0,0,0,0,0,0.0137,0.0129,0.013,0.013,0.0125,0.0116,0.0114,0.0107,0.0103,0.009,0.0078,0.0085,0.0046,0.0059,0.0057,0.0046,0.0015,0.0012,0.0009,0.0003,-0.0001,-0.0005,0,0,0,0,0,0,0.0124,0.0127,0.0128,0.0121,0.0114,0.0113,0.0103,0.0097,0.0079,0.0073,0.0072,0.0069,0.0041,0.004,0.0055,0.0018,0.003,0.0027,0.0026,0.0022,0.0019,0.0028,0.007,0,0,0,0,0,0.0121,0.0117,0.0117,0.0109,0.0106,0.0101,0.0095,0.0088,0.0077,0.0068,0.0058,0.0045,0.0032,0.0023,0.0011,-0.0007,-0.0002,-0.0018,-0.0022,-0.0024,-0.002,-0.0033,-0.0037,-0.0,-0.0,-0.0,0,0,0.0113,0.0115,0.0112,0.0106,0.0102,0.0091,0.0095,0.008,0.0067,0.0068,0.004,0.0031,0.0022,0.0002,-0.001,-0.0002,-0.0032,-0.0028,-0.003,-0.0024,-0.0036,-0.004,-0.0042,-0.0002,-0.0002,-0.0002,0,0,0.0098,0.0098,0.009,0.0083,0.0075,0.0073,0.0064,0.0053,0.0043,0.0021,0.0016,-0.0003,-0.0022,-0.0029,-0.0034,-0.0065,-0.0052,-0.0073,-0.0077,-0.009,-0.0092,-0.0094,-0.0086,-0.0088,-0.0071,-0.0071,-0.0071,0,0.0086,0.0082,0.0083,0.0073,0.0068,0.0062,0.0049,0.0039,0.0017,0.0011,0.0008,-0.0024,-0.0034,-0.0053,-0.0063,-0.0071,-0.0068,-0.0057,-0.0092,-0.0094,-0.0096,-0.0087,-0.0089,-0.0072,-0.0072,-0.0072,-0.0072,0,0.0068,0.0061,0.0055,0.0045,0.0035,0.0023,0.0015,-0.0001,-0.001,-0.0016,-0.0042,-0.0055,-0.0067,-0.008,-0.0078,-0.01,-0.0089,-0.0095,-0.0076,-0.01,-0.009,-0.0091,-0.0073,-0.0073,-0.0073,-0.0072,0,0,0.0053,0.0045,0.0042,0.0039,0.0022,0.0016,-0.0007,-0.0019,-0.0027,-0.005,-0.0061,-0.0087,-0.0086,-0.0092,-0.0097,-0.0111,-0.0122,-0.0106,-0.0107,-0.0087,-0.0134,-0.0112,-0.0111,-0.0132,-0.0132,-0.0133,-0.0117,0,0.0039,0.0027,0.0021,0.0004,-0.0,-0.001,-0.0024,-0.0039,-0.0049,-0.0063,-0.0077,-0.0086,-0.0092,-0.009,-0.0109,-0.0123,-0.0127,-0.0125,-0.0123,-0.0122,-0.0091,-0.0112,-0.0135,-0.0118,-0.0118,-0.0118,-0.0118,0,0.0025,0.0022,0.0013,0.0002,-0.0002,-0.001,-0.0022,-0.0035,-0.0053,-0.0059,-0.0072,-0.0081,-0.0099,-0.01,-0.0127,-0.0124,-0.0124,-0.0135,-0.0135,-0.011,-0.0103,-0.0093,-0.012,-0.012,-0.012,-0.012,-0.012,0,0.0033,0.0015,0.0014,0.0009,-0.0005,-0.0006,-0.001,-0.0027,-0.003,-0.0043,-0.0046,-0.0074,-0.0078,-0.0099,-0.0112,-0.0119,-0.0137,-0.015,-0.0128,-0.0125,-0.0143,-0.0141,-0.0161,-0.0161,-0.0161,-0.0161,-0.0161,0,0.0029,0.0025,0.0025,0.0026,0.0027,0.0014,0.0017,0.0006,-0.0002,-0.0014,-0.0029,-0.005,-0.0079,-0.0095,-0.0109,-0.0116,-0.013,-0.0127,-0.0124,-0.0147,-0.0146,-0.0143,-0.0141,-0.0161,-0.0161,-0.0161,-0.0161,0,0.0037,0.0036,0.0037,0.0034,0.0036,0.0043,0.0048,0.0046,0.004,0.0023,0.0024,-0.0021,-0.0049,-0.0063,-0.0096,-0.0102,-0.0116,-0.0108,-0.0111,-0.0109,-0.0095,-0.0094,-0.0094,-0.0093,-0.0093,-0.0092,-0.0092,0,0.0038,0.0043,0.0052,0.0062,0.0066,0.0078,0.0083,0.0077,0.0068,0.0026,0.001,-0.0012,-0.0043,-0.0062,-0.0087,-0.0088,-0.009,-0.0081,-0.0111,-0.0093,-0.0091,-0.0091,-0.0091,-0.0091,-0.009,-0.009,-0.009,0,0.0037,0.0048,0.005,0.0081,0.0095,0.01,0.0102,0.0088,0.006,0.0065,0.0007,-0.0015,-0.0043,-0.0072,-0.0049,-0.0064,-0.0087,-0.0075,-0.0077,-0.0105,-0.0089,-0.0087,-0.0088,-0.0088,-0.0088,-0.0088,-0.0088,0,0.0034,0.0041,0.0059,0.0083,0.0115,0.0108,0.0096,0.0075,0.0067,0.0016,-0.0009,-0.0042,-0.0057,-0.006,-0.0061,-0.0048,-0.0061,-0.0064,-0.0068,-0.007,-0.0071,-0.0047,-0.0031,0,0,0,0,0,0.0024,0.0033,0.0057,0.0072,0.0111,0.0132,0.0105,0.0082,0.0045,0.0016,0.0007,-0.002,-0.0038,-0.006,-0.0043,-0.0062,-0.0063,-0.0043,-0.0069,-0.0075,-0.0077,-0.0081,0,0,0,0,0,0,0.0014,0.0031,0.005,0.0078,0.0102,0.0122,0.011,0.0067,0.0043,0.0011,0.0003,0.001,-0.0004,-0.002,-0.0026,-0.0028,-0.0041,-0.0042,-0.0042,-0.0073,-0.0075,-0.0078,-0.0082,0,0,0,0,0]}]]